When you browse on this site, cookies collect data to enhance your experience and personalize the content and advertising you see.
Visit our Privacy Policy to learn more. By continuing to use the site, you agree to this use of cookies and data.
  • In Hungary
  • List of Countries
  • For 7 days
  • Water Temperature
  • Weather Map
  • News
  • Weather Widgets
  • user-avatar
    Login

    Hourly Weather Ganchukov

    Today, 21 February, Friday

    Time Temperature Precipitation Wind Pressure Humidity
    00:00 +3°C° 0.2 mm 4 mps 756 mmHg 92%
    01:00 +1°C° 0.3 mm 4 mps 756 mmHg 92%
    02:00 +1°C° 0.3 mm 4 mps 756 mmHg 92%
    03:00 +1°C° 0 mm 4 mps 757 mmHg 89%
    04:00 +1°C° 0.2 mm 4 mps 757 mmHg 89%
    05:00 +1°C° 0.2 mm 4 mps 757 mmHg 89%
    06:00 +1°C° 0.2 mm 4 mps 757 mmHg 89%
    07:00 +1°C° 0.2 mm 4 mps 757 mmHg 90%
    08:00 +1°C° 0.2 mm 4 mps 757 mmHg 91%
    09:00 +1°C° 0 mm 4 mps 757 mmHg 92%
    16:00 0°C° 0.8 mm 4 mps 757 mmHg 96%
    17:00 0°C° 0.8 mm 4 mps 757 mmHg 96%
    18:00 0°C° 0.8 mm 4 mps 757 mmHg 96%
    19:00 0°C° 0.3 mm 4 mps 757 mmHg 96%
    20:00 0°C° 0.3 mm 4 mps 758 mmHg 96%
    21:00 0°C° 0.3 mm 4 mps 758 mmHg 96%
    22:00 0°C° 0.1 mm 4 mps 758 mmHg 95%
    23:00 0°C° 0.1 mm 4 mps 758 mmHg 94%

    Tomorrow, 22 February, Saturday

    Time Temperature Precipitation Wind Pressure Humidity
    00:00 +1°C° 0.1 mm 4 mps 758 mmHg 94%
    01:00 0°C° 0 mm 4 mps 758 mmHg 93%
    02:00 0°C° 0 mm 4 mps 758 mmHg 91%
    03:00 0°C° 0 mm 4 mps 758 mmHg 90%
    04:00 0°C° 0 mm 4 mps 758 mmHg 89%
    05:00 0°C° 0 mm 4 mps 758 mmHg 89%
    06:00 0°C° 0 mm 4 mps 759 mmHg 88%
    07:00 0°C° 0 mm 4 mps 759 mmHg 87%
    08:00 +1°C° 0 mm 5 mps 759 mmHg 85%
    09:00 +1°C° 0 mm 5 mps 760 mmHg 83%
    10:00 +2°C° 0 mm 5 mps 760 mmHg 81%
    11:00 +2°C° 0 mm 5 mps 760 mmHg 79%
    12:00 +3°C° 0 mm 5 mps 760 mmHg 77%
    13:00 +3°C° 0 mm 5 mps 760 mmHg 76%
    14:00 +3°C° 0 mm 5 mps 760 mmHg 75%
    15:00 +3°C° 0 mm 5 mps 760 mmHg 73%
    16:00 +4°C° 0.1 mm 4 mps 760 mmHg 76%
    17:00 +4°C° 0.1 mm 4 mps 759 mmHg 79%
    18:00 +3°C° 0.1 mm 4 mps 759 mmHg 81%
    19:00 +3°C° 0.1 mm 4 mps 759 mmHg 81%
    20:00 +3°C° 0.1 mm 4 mps 760 mmHg 80%
    21:00 +3°C° 0.1 mm 4 mps 760 mmHg 80%
    22:00 +3°C° 0.3 mm 3 mps 759 mmHg 82%
    23:00 +3°C° 0.3 mm 3 mps 759 mmHg 84%

    Day after tomorrow, 23 February, Sunday

    Time Temperature Precipitation Wind Pressure Humidity
    00:00 +3°C° 0.3 mm 3 mps 759 mmHg 86%
    01:00 +3°C° 0.1 mm 3 mps 759 mmHg 86%
    02:00 +3°C° 0.1 mm 3 mps 759 mmHg 86%
    03:00 +3°C° 0.1 mm 3 mps 758 mmHg 86%
    04:00 +3°C° 0.2 mm 3 mps 758 mmHg 87%
    05:00 +3°C° 0.2 mm 2 mps 758 mmHg 89%
    06:00 +3°C° 0.2 mm 2 mps 757 mmHg 90%
    07:00 +3°C° 0 mm 3 mps 757 mmHg 90%
    08:00 +3°C° 0 mm 3 mps 757 mmHg 91%
    09:00 +3°C° 0 mm 3 mps 757 mmHg 92%
    10:00 +3°C° 0 mm 4 mps 757 mmHg 88%
    11:00 +3°C° 0 mm 5 mps 757 mmHg 84%
    12:00 +3°C° 0 mm 6 mps 757 mmHg 81%
    13:00 +3°C° 0 mm 6 mps 756 mmHg 78%
    14:00 +3°C° 0 mm 6 mps 756 mmHg 75%
    15:00 +3°C° 0 mm 6 mps 755 mmHg 72%
    16:00 +2°C° 0 mm 6 mps 755 mmHg 73%
    17:00 +2°C° 0 mm 5 mps 755 mmHg 73%
    18:00 +2°C° 0 mm 5 mps 755 mmHg 73%
    19:00 +2°C° 0 mm 5 mps 755 mmHg 74%
    20:00 +1°C° 0 mm 5 mps 754 mmHg 76%
    21:00 +1°C° 0 mm 5 mps 754 mmHg 77%
    22:00 +1°C° 0.1 mm 6 mps 753 mmHg 80%
    23:00 +2°C° 0.1 mm 7 mps 753 mmHg 83%

    24 February, Monday

    Time Temperature Precipitation Wind Pressure Humidity
    00:00 +1°C° 0.1 mm 8 mps 752 mmHg 85%
    01:00 +1°C° 0.1 mm 8 mps 752 mmHg 85%
    02:00 +1°C° 0.1 mm 8 mps 751 mmHg 84%
    03:00 +1°C° 0.1 mm 8 mps 751 mmHg 84%
    04:00 +1°C° 0.1 mm 8 mps 751 mmHg 85%
    05:00 +1°C° 0.1 mm 8 mps 750 mmHg 86%
    06:00 +1°C° 0.1 mm 8 mps 750 mmHg 88%
    07:00 +1°C° 0.1 mm 8 mps 750 mmHg 84%
    08:00 +1°C° 0.1 mm 8 mps 750 mmHg 80%
    09:00 +2°C° 0.1 mm 8 mps 750 mmHg 77%
    10:00 +2°C° 0.1 mm 8 mps 749 mmHg 77%
    11:00 +2°C° 0.1 mm 8 mps 748 mmHg 77%
    12:00 +4°C° 0.1 mm 8 mps 747 mmHg 77%
    13:00 +4°C° 0.5 mm 8 mps 746 mmHg 80%
    14:00 +2°C° 0.5 mm 9 mps 745 mmHg 83%
    15:00 +2°C° 0.5 mm 9 mps 744 mmHg 85%
    16:00 +2°C° 1.5 mm 9 mps 743 mmHg 87%
    17:00 +2°C° 1.5 mm 8 mps 743 mmHg 89%
    18:00 +2°C° 1.5 mm 8 mps 742 mmHg 91%
    19:00 +2°C° 1.8 mm 9 mps 742 mmHg 90%
    20:00 +3°C° 1.8 mm 9 mps 741 mmHg 89%
    21:00 +3°C° 1.8 mm 10 mps 741 mmHg 88%
    22:00 +3°C° 0.9 mm 9 mps 740 mmHg 83%
    23:00 +2°C° 0.9 mm 9 mps 740 mmHg 78%

    25 February, Tuesday

    Time Temperature Precipitation Wind Pressure Humidity
    00:00 +2°C° 0.9 mm 8 mps 740 mmHg 73%
    01:00 +1°C° 0 mm 9 mps 740 mmHg 76%
    02:00 0°C° 0 mm 10 mps 740 mmHg 78%
    03:00 -2°C° 0 mm 11 mps 740 mmHg 81%
    04:00 -2°C° 0.3 mm 10 mps 740 mmHg 85%
    05:00 -2°C° 0.3 mm 10 mps 741 mmHg 89%
    06:00 -2°C° 0.3 mm 10 mps 741 mmHg 93%
    07:00 -2°C° 0.1 mm 10 mps 743 mmHg 89%
    08:00 -2°C° 0.1 mm 11 mps 744 mmHg 85%
    09:00 -2°C° 0.1 mm 11 mps 746 mmHg 81%
    10:00 -2°C° 0.1 mm 11 mps 747 mmHg 77%
    11:00 -1°C° 0.1 mm 11 mps 748 mmHg 74%
    12:00 -1°C° 0.1 mm 11 mps 750 mmHg 70%
    13:00 0°C° 0 mm 10 mps 750 mmHg 67%
    14:00 0°C° 0 mm 9 mps 751 mmHg 64%
    15:00 0°C° 0 mm 9 mps 751 mmHg 62%
    16:00 0°C° 0 mm 8 mps 752 mmHg 62%
    17:00 0°C° 0 mm 7 mps 752 mmHg 63%
    18:00 -1°C° 0 mm 6 mps 753 mmHg 64%
    19:00 0°C° 0 mm 5 mps 753 mmHg 68%
    20:00 -1°C° 0 mm 5 mps 754 mmHg 71%
    21:00 -2°C° 0 mm 4 mps 754 mmHg 74%
    22:00 -2°C° 0 mm 4 mps 754 mmHg 75%
    23:00 -2°C° 0 mm 4 mps 754 mmHg 76%

    26 February, Wednesday

    Time Temperature Precipitation Wind Pressure Humidity
    00:00 -2°C° 0 mm 4 mps 754 mmHg 76%
    01:00 -2°C° 0 mm 4 mps 754 mmHg 78%
    02:00 -2°C° 0 mm 4 mps 754 mmHg 79%
    03:00 -2°C° 0 mm 4 mps 754 mmHg 80%
    04:00 -2°C° 0 mm 4 mps 754 mmHg 81%
    05:00 -3°C° 0 mm 4 mps 754 mmHg 81%
    06:00 -2°C° 0 mm 3 mps 754 mmHg 82%
    07:00 -2°C° 0 mm 4 mps 754 mmHg 75%
    08:00 -1°C° 0 mm 4 mps 754 mmHg 68%
    09:00 0°C° 0 mm 5 mps 754 mmHg 61%
    10:00 +1°C° 0 mm 5 mps 754 mmHg 56%
    11:00 +3°C° 0 mm 5 mps 753 mmHg 50%
    12:00 +4°C° 0 mm 6 mps 753 mmHg 45%
    13:00 +6°C° 0 mm 5 mps 753 mmHg 45%
    14:00 +6°C° 0 mm 5 mps 752 mmHg 46%
    15:00 +6°C° 0 mm 5 mps 751 mmHg 47%
    16:00 +5°C° 0 mm 4 mps 751 mmHg 50%
    17:00 +4°C° 0 mm 4 mps 751 mmHg 54%
    18:00 +3°C° 0 mm 3 mps 751 mmHg 58%
    19:00 +3°C° 0 mm 3 mps 751 mmHg 56%
    20:00 +2°C° 0 mm 3 mps 751 mmHg 55%
    21:00 +2°C° 0 mm 3 mps 751 mmHg 53%
    22:00 +2°C° 0 mm 3 mps 750 mmHg 55%
    23:00 +1°C° 0 mm 4 mps 750 mmHg 57%
    Show more